Location: Prague
(50.0830°N, 14.4670°E)
Time: 17:54:28
(UTC+01:00)

EO-79 - Visible Passes

Search period start: 20 March 2023 00:00
Search period end: 30 March 2023 01:00
Orbit: 582 x 596 km, 98.0° (Epoch: 19 March)

Date Brightness Start Highest point End Pass type
(mag) Time Alt. Az. Time Alt. Az. Time Alt. Az.
20 Mar ? 02:05:01 10° NNE 02:06:20 19° NNE 02:06:20 19° NNE visible
20 Mar ? 03:41:21 10° NNW 03:42:52 16° NW 03:42:52 16° NW visible
21 Mar ? 02:12:42 10° NNE 02:14:17 22° NNE 02:14:17 22° NNE visible
21 Mar ? 03:49:18 10° NNW 03:50:48 15° NW 03:50:48 15° NW visible
22 Mar ? 02:20:25 10° NNE 02:22:11 25° NNE 02:22:11 25° NNE visible
22 Mar ? 03:57:20 10° NNW 03:58:43 13° NW 03:58:43 13° NW visible
23 Mar ? 02:28:07 10° NNE 02:30:06 27° NNE 02:30:06 27° NNE visible
23 Mar ? 04:05:28 10° NNW 04:06:37 12° NW 04:06:37 12° NW visible
24 Mar ? 02:35:49 10° N 02:37:59 30° N 02:37:59 30° N visible
24 Mar ? 04:13:58 10° NW 04:14:31 10° NW 04:14:31 10° NW visible
25 Mar ? 01:09:09 10° NE 01:09:20 11° NE 01:09:20 11° NE visible
25 Mar ? 02:43:32 10° N 02:45:52 31° N 02:45:52 31° N visible
26 Mar ? 01:16:32 10° NE 01:17:13 13° NE 01:17:13 13° NE visible
26 Mar ? 03:51:15 10° N 03:53:44 32° NNW 03:53:44 32° NNW visible
27 Mar ? 02:23:57 10° NE 02:25:04 15° NE 02:25:04 15° NE visible
27 Mar ? 03:58:58 10° N 04:01:35 32° NNW 04:01:35 32° NNW visible
28 Mar ? 02:31:26 10° NE 02:32:55 18° NE 02:32:55 18° NE visible
28 Mar ? 04:06:41 10° N 04:09:26 30° NW 04:09:26 30° NW visible
29 Mar ? 02:38:56 10° NNE 02:40:45 21° NE 02:40:45 21° NE visible
29 Mar ? 04:14:25 10° N 04:17:16 28° NW 04:17:16 28° NW visible
